| time (UTC) | temp C | wind direction | speed KPH | gust KPH | rain 1hr cm | rain 24hr cm | rain mn cm | humidity % | barometer mb |
| 20260506134849 | 27 | 156 | 43.5 | 80.5 | 13.79 | 3.94 | 0.00 | 33 | 996.4 |
| 20260506134449 | 27 | 173 | 24.1 | 80.5 | 13.79 | 3.78 | 0.00 | 33 | 996.3 |
| 20260506134049 | 27 | 206 | 20.9 | 80.5 | 13.79 | 3.71 | 0.00 | 32 | 996.4 |
| 20260506133649 | 27 | 177 | 35.4 | 80.5 | 13.79 | 3.89 | 0.00 | 32 | 996.4 |
| 20260506133249 | 27 | 156 | 35.4 | 80.5 | 13.79 | 3.89 | 0.00 | 31 | 996.3 |
| 20260506132849 | 27 | 172 | 33.8 | 80.5 | 13.79 | 3.73 | 0.00 | 31 | 996.3 |
| 20260506132449 | 27 | 194 | 38.6 | 80.5 | 13.79 | 3.68 | 0.00 | 32 | 996.3 |
| 20260506132049 | 28 | 151 | 22.5 | 80.5 | 13.79 | 3.84 | 0.00 | 32 | 996.3 |
| 20260506131649 | 27 | 200 | 33.8 | 80.5 | 13.79 | 3.91 | 0.00 | 32 | 996.3 |
| 20260506131249 | 27 | 218 | 25.7 | 80.5 | 13.79 | 4.04 | 0.00 | 33 | 996.3 |
| 20260506130849 | 27 | 172 | 29.0 | 80.5 | 13.79 | 3.94 | 0.00 | 34 | 996.4 |
| 20260506130449 | 27 | 190 | 27.4 | 80.5 | 13.79 | 3.94 | 0.00 | 34 | 996.3 |
| 20260506130049 | 27 | 190 | 24.1 | 80.5 | 13.79 | 3.94 | 0.00 | 34 | 996.4 |
| 20260506125649 | 27 | 95 | 29.0 | 80.5 | 13.79 | 4.11 | 0.00 | 35 | 996.4 |
| 20260506125249 | 27 | 184 | 33.8 | 80.5 | 13.79 | 3.94 | 0.00 | 36 | 996.4 |
| 20260506124849 | 27 | 179 | 24.1 | 80.5 | 13.79 | 3.91 | 0.00 | 36 | 996.3 |
| 20260506124449 | 28 | 190 | 37.0 | 80.5 | 13.79 | 3.91 | 0.00 | 37 | 996.3 |
| 20260506124049 | 28 | 161 | 32.2 | 80.5 | 13.79 | 3.96 | 0.00 | 38 | 996.4 |
| 20260506123649 | 28 | 207 | 27.4 | 80.5 | 13.79 | 3.99 | 0.00 | 39 | 996.4 |
| 20260506123249 | 27 | 156 | 32.2 | 80.5 | 13.79 | 3.91 | 0.00 | 40 | 996.4 |
| 20260506122849 | 27 | 177 | 33.8 | 80.5 | 13.79 | 4.04 | 0.00 | 41 | 996.4 |
| 20260506122449 | 28 | 161 | 25.7 | 80.5 | 13.79 | 4.06 | 0.00 | 42 | 996.4 |
| 20260506122049 | 27 | 194 | 27.4 | 80.5 | 13.79 | 4.01 | 0.00 | 42 | 996.4 |
| 20260506121649 | 28 | 161 | 24.1 | 80.5 | 13.79 | 3.96 | 0.00 | 41 | 996.5 |
| 20260506121249 | 27 | 155 | 32.2 | 80.5 | 13.79 | 3.94 | 0.00 | 41 | 996.6 |
| 20260506120849 | 27 | 156 | 20.9 | 80.5 | 13.79 | 3.94 | 0.00 | 41 | 996.6 |
| 20260506120448 | 28 | 151 | 17.7 | 80.5 | 13.79 | 3.86 | 0.00 | 41 | 996.6 |
| 20260506120048 | 27 | 128 | 20.9 | 80.5 | 13.79 | 3.84 | 0.00 | 41 | 996.6 |
| 20260506115649 | 27 | 156 | 27.4 | 80.5 | 13.79 | 3.81 | 0.00 | 40 | 996.7 |
| 20260506115249 | 27 | 183 | 37.0 | 80.5 | 13.79 | 3.76 | 0.00 | 40 | 996.7 |
| 20260506114849 | 27 | 206 | 61.2 | 80.5 | 13.79 | 3.68 | 0.00 | 41 | 996.7 |
| 20260506114448 | 28 | 134 | 17.7 | 80.5 | 13.79 | 3.86 | 0.00 | 41 | 996.7 |
| 20260506114048 | 27 | 173 | 43.5 | 80.5 | 13.79 | 3.76 | 0.00 | 41 | 996.7 |
| 20260506113649 | 27 | 155 | 38.6 | 80.5 | 13.79 | 3.76 | 0.00 | 41 | 996.7 |
| 20260506113248 | 27 | 183 | 27.4 | 80.5 | 13.79 | 3.78 | 0.00 | 41 | 996.6 |
| 20260506112849 | 27 | 151 | 17.7 | 80.5 | 13.79 | 3.81 | 0.00 | 41 | 996.6 |
| 20260506112448 | 27 | 168 | 35.4 | 80.5 | 13.79 | 3.71 | 0.00 | 41 | 996.7 |
| 20260506112049 | 27 | 156 | 35.4 | 80.5 | 13.79 | 3.73 | 0.00 | 41 | 996.6 |
| 20260506111648 | 27 | 224 | 43.5 | 80.5 | 13.79 | 3.73 | 0.00 | 41 | 996.7 |
| 20260506111249 | 27 | 151 | 56.3 | 80.5 | 13.79 | 3.78 | 0.00 | 41 | 996.7 |
| 20260506110848 | 27 | 161 | 25.7 | 80.5 | 13.79 | 3.78 | 0.00 | 41 | 996.7 |
| 20260506110448 | 27 | 149 | 32.2 | 80.5 | 13.79 | 3.81 | 0.00 | 41 | 996.6 |
| 20260506110048 | 27 | 162 | 14.5 | 80.5 | 13.79 | 3.78 | 0.00 | 41 | 996.7 |
| 20260506105649 | 27 | 161 | 27.4 | 80.5 | 13.79 | 3.78 | 0.00 | 41 | 996.6 |
| 20260506105249 | 27 | 179 | 43.5 | 80.5 | 13.79 | 3.76 | 0.00 | 41 | 996.7 |
| 20260506104849 | 27 | 161 | 29.0 | 80.5 | 13.79 | 3.76 | 0.00 | 40 | 996.7 |
| 20260506104449 | 27 | 196 | 32.2 | 80.5 | 13.79 | 3.76 | 0.00 | 41 | 996.7 |
| 20260506104048 | 27 | 184 | 29.0 | 80.5 | 13.79 | 3.78 | 0.00 | 41 | 996.7 |
| 20260506103648 | 26 | 145 | 30.6 | 80.5 | 13.79 | 3.68 | 0.00 | 41 | 996.7 |
| 20260506103249 | 27 | 184 | 32.2 | 80.5 | 13.79 | 3.71 | 0.00 | 41 | 996.7 |
| 20260506102848 | 27 | 189 | 45.1 | 80.5 | 13.79 | 3.76 | 0.00 | 41 | 996.7 |
| 20260506102448 | 27 | 173 | 41.8 | 80.5 | 13.79 | 3.78 | 0.00 | 41 | 996.6 |
| 20260506102048 | 27 | 134 | 53.1 | 80.5 | 13.79 | 3.84 | 0.00 | 41 | 996.6 |
| 20260506101648 | 26 | 9 | 33.8 | 80.5 | 13.79 | 3.76 | 0.00 | 42 | 996.6 |
| 20260506101248 | 27 | 173 | 25.7 | 80.5 | 13.79 | 3.76 | 0.00 | 42 | 996.7 |
| 20260506100848 | 27 | 145 | 30.6 | 80.5 | 13.79 | 3.81 | 0.00 | 42 | 996.7 |
| 20260506100449 | 27 | 190 | 51.5 | 80.5 | 13.79 | 3.73 | 0.00 | 43 | 996.7 |
| 20260506100049 | 25 | 156 | 37.0 | 80.5 | 13.79 | 3.68 | 0.00 | 43 | 996.7 |
| 20260506095648 | 25 | 161 | 43.5 | 80.5 | 13.79 | 3.71 | 0.00 | 43 | 996.7 |
| 20260506095248 | 26 | 194 | 45.1 | 80.5 | 13.79 | 3.58 | 0.00 | 42 | 996.7 |
| 20260506094849 | 23 | 145 | 51.5 | 80.5 | 13.79 | 3.38 | 0.00 | 42 | 996.7 |
| 20260506094448 | 22 | 194 | 53.1 | 80.5 | 13.79 | 3.38 | 0.00 | 43 | 996.7 |
| 20260506094049 | 23 | 179 | 37.0 | 80.5 | 13.79 | 3.40 | 0.00 | 43 | 996.7 |
| 20260506093649 | 23 | 196 | 29.0 | 80.5 | 13.79 | 3.43 | 0.00 | 43 | 996.7 |
| 20260506092849 | 22 | 190 | 24.1 | 80.5 | 13.79 | 3.40 | 0.00 | 42 | 996.7 |
| 20260506092449 | 22 | 173 | 37.0 | 80.5 | 13.79 | 3.45 | 0.00 | 42 | 996.7 |
| 20260506092049 | 23 | 151 | 19.3 | 80.5 | 13.79 | 3.51 | 0.00 | 42 | 996.7 |
| 20260506091649 | 22 | 166 | 30.6 | 80.5 | 13.79 | 3.48 | 0.00 | 42 | 996.6 |
| 20260506091248 | 22 | 161 | 25.7 | 80.5 | 13.79 | 3.43 | 0.00 | 41 | 996.7 |
| 20260506090849 | 22 | 134 | 46.7 | 80.5 | 13.79 | 3.43 | 0.00 | 41 | 996.7 |
| 20260506090448 | 22 | 168 | 41.8 | 80.5 | 13.79 | 3.45 | 0.00 | 41 | 996.7 |
| 20260506085648 | 23 | 156 | 22.5 | 80.5 | 13.79 | 3.53 | 0.00 | 41 | 996.8 |
| 20260506085248 | 25 | 172 | 22.5 | 80.5 | 13.79 | 3.61 | 0.00 | 42 | 996.8 |
| 20260506084848 | 25 | 156 | 45.1 | 80.5 | 13.79 | 3.66 | 0.00 | 43 | 996.7 |
| 20260506084448 | 27 | 151 | 24.1 | 80.5 | 13.79 | 3.78 | 0.00 | 42 | 996.7 |
| 20260506084048 | 27 | 106 | 27.4 | 80.5 | 13.79 | 3.56 | 0.00 | 41 | 996.8 |
| 20260506083649 | 22 | 156 | 29.0 | 80.5 | 13.79 | 3.33 | 0.00 | 40 | 996.8 |
| 20260506083248 | 22 | 155 | 43.5 | 80.5 | 13.79 | 3.38 | 0.00 | 41 | 996.7 |
| 20260506082848 | 25 | 161 | 45.1 | 80.5 | 13.79 | 3.58 | 0.00 | 41 | 996.7 |
| 20260506082448 | 25 | 155 | 37.0 | 80.5 | 13.79 | 3.56 | 0.00 | 41 | 996.7 |
| 20260506082048 | 26 | 128 | 22.5 | 80.5 | 13.79 | 3.58 | 0.00 | 40 | 996.7 |
| 20260506081649 | 23 | 168 | 19.3 | 80.5 | 13.79 | 3.48 | 0.00 | 40 | 996.8 |
| 20260506081248 | 23 | 121 | 33.8 | 80.5 | 13.79 | 3.43 | 0.00 | 40 | 996.8 |
| 20260506080848 | 25 | 145 | 17.7 | 80.5 | 13.79 | 3.63 | 0.00 | 41 | 996.8 |
| 20260506080448 | 27 | 156 | 33.8 | 80.5 | 13.79 | 3.68 | 0.00 | 41 | 996.8 |
| 20260506073248 | 26 | 173 | 27.4 | 80.5 | 13.79 | 3.53 | 0.00 | 41 | 996.8 |
| 20260506072848 | 26 | 173 | 27.4 | 80.5 | 13.79 | 3.51 | 0.00 | 41 | 996.8 |
| 20260506072448 | 25 | 200 | 32.2 | 80.5 | 13.79 | 3.48 | 0.00 | 42 | 996.8 |
| 20260506072048 | 26 | 161 | 40.2 | 80.5 | 13.79 | 3.48 | 0.00 | 42 | 996.8 |
| 20260506071648 | 26 | 144 | 14.5 | 80.5 | 13.79 | 3.48 | 0.00 | 42 | 996.8 |
| 20260506071248 | 26 | 156 | 17.7 | 80.5 | 13.79 | 3.45 | 0.00 | 42 | 996.8 |
| 20260506070448 | 23 | 162 | 45.1 | 80.5 | 13.79 | 3.38 | 0.00 | 42 | 996.8 |
| 20260506062448 | 22 | 134 | 29.0 | 80.5 | 13.79 | 3.20 | 0.00 | 43 | 996.9 |
| 20260506062048 | 22 | 117 | 20.9 | 80.5 | 13.79 | 3.20 | 0.00 | 43 | 996.9 |
| 20260506061648 | 22 | 111 | 27.4 | 80.5 | 13.79 | 3.20 | 0.00 | 42 | 996.9 |
| 20260506061248 | 22 | 172 | 24.1 | 80.5 | 13.79 | 3.12 | 0.00 | 43 | 996.9 |
| 20260506060848 | 22 | 111 | 22.5 | 80.5 | 13.79 | 3.20 | 0.00 | 43 | 997.0 |
| 20260506060448 | 23 | 179 | 11.3 | 80.5 | 13.79 | 3.33 | 0.00 | 43 | 997.0 |
| 20260506051248 | 20 | 128 | 8.0 | 80.5 | 13.79 | 3.05 | 0.00 | 47 | 997.2 |
| 20260506050848 | 18 | 100 | 11.3 | 80.5 | 13.79 | 3.20 | 0.00 | 47 | 997.2 |
| 20260506050448 | 18 | 166 | 11.3 | 80.5 | 13.79 | 3.15 | 0.00 | 46 | 997.2 |
| 20260506044848 | 18 | 111 | 6.4 | 80.5 | 13.79 | 3.10 | 0.00 | 49 | 997.3 |
| 20260506044448 | 17 | 149 | 9.7 | 80.5 | 13.79 | 3.10 | 0.00 | 49 | 997.3 |
| 20260506044048 | 17 | 104 | 11.3 | 80.5 | 13.79 | 3.12 | 0.00 | 50 | 997.2 |
| 20260506043648 | 17 | 111 | 8.0 | 80.5 | 13.69 | 3.05 | 0.00 | 52 | 997.3 |
| 20260506043248 | 17 | 123 | 8.0 | 80.5 | 13.69 | 3.07 | 0.00 | 53 | 997.4 |
| 20260506042848 | 17 | 145 | 3.2 | 80.5 | 13.59 | 3.20 | 0.00 | 55 | 997.4 |
| 20260506042448 | 17 | 121 | 4.8 | 80.5 | 13.59 | 3.20 | 0.00 | 56 | 997.4 |
| 20260506042048 | 16 | 144 | 4.8 | 80.5 | 13.49 | 3.12 | 0.00 | 57 | 997.4 |
| 20260506041648 | 16 | 138 | 6.4 | 80.5 | 13.49 | 3.05 | 0.00 | 58 | 997.4 |
| 20260506041248 | 15 | 145 | 4.8 | 80.5 | 13.41 | 3.00 | 0.00 | 59 | 997.4 |
| 20260506040848 | 15 | 149 | 6.4 | 80.5 | 13.41 | 2.90 | 0.00 | 60 | 997.4 |
| 20260506040048 | 13 | 156 | 8.0 | 80.5 | 13.31 | 2.79 | 0.00 | 61 | 997.4 |
| 20260506035648 | 13 | 139 | 8.0 | 80.5 | 13.21 | 2.82 | 0.00 | 61 | 997.3 |
| 20260506035248 | 13 | 111 | 6.4 | 80.5 | 13.21 | 2.82 | 0.00 | 61 | 997.3 |
| 20260506034848 | 13 | 177 | 8.0 | 80.5 | 13.11 | 2.64 | 0.00 | 61 | 997.3 |
| 20260506034448 | 13 | 151 | 9.7 | 80.5 | 13.11 | 2.51 | 0.00 | 61 | 997.3 |
| 20260506034048 | 13 | 155 | 8.0 | 80.5 | 13.00 | 2.44 | 0.00 | 61 | 997.4 |
| 20260506033648 | 13 | 177 | 8.0 | 80.5 | 12.90 | 2.49 | 0.00 | 61 | 997.4 |
| 20260506033248 | 13 | 123 | 11.3 | 80.5 | 12.80 | 2.44 | 0.00 | 61 | 997.3 |
| 20260506032848 | 13 | 121 | 4.8 | 80.5 | 12.70 | 2.36 | 0.00 | 61 | 997.3 |
| 20260506032448 | 12 | 156 | 6.4 | 80.5 | 12.60 | 2.34 | 0.00 | 60 | 997.4 |
| 20260506032048 | 12 | 151 | 6.4 | 80.5 | 12.60 | 2.29 | 0.00 | 60 | 997.4 |
| 20260506031648 | 12 | 184 | 6.4 | 80.5 | 12.50 | 2.24 | 0.00 | 60 | 997.4 |
| 20260506031248 | 12 | 156 | 8.0 | 80.5 | 12.50 | 2.18 | 0.00 | 60 | 997.5 |
| 20260506030848 | 12 | 144 | 11.3 | 80.5 | 12.50 | 2.18 | 0.00 | 60 | 997.5 |
| 20260506030448 | 12 | 144 | 9.7 | 80.5 | 12.50 | 2.18 | 0.00 | 60 | 997.5 |
| 20260506030048 | 12 | 177 | 9.7 | 80.5 | 12.50 | 2.13 | 0.00 | 60 | 997.5 |
| 20260506025648 | 12 | 132 | 9.7 | 80.5 | 12.40 | 2.18 | 0.00 | 60 | 997.5 |
| 20260506025248 | 12 | 177 | 9.7 | 80.5 | 12.40 | 2.18 | 0.00 | 60 | 997.5 |
| 20260506024848 | 12 | 183 | 6.4 | 80.5 | 12.40 | 2.16 | 0.00 | 60 | 997.5 |
| 20260506024448 | 12 | 145 | 9.7 | 80.5 | 12.40 | 2.16 | 0.00 | 60 | 997.5 |
| 20260506024048 | 12 | 161 | 6.4 | 80.5 | 12.40 | 2.16 | 0.00 | 59 | 997.5 |
| 20260506023648 | 12 | 162 | 12.9 | 80.5 | 12.40 | 2.16 | 0.00 | 59 | 997.5 |
| 20260506023248 | 13 | 128 | 9.7 | 80.5 | 12.40 | 2.24 | 0.00 | 59 | 997.4 |
| 20260506022848 | 13 | 166 | 14.5 | 80.5 | 12.40 | 2.26 | 0.00 | 59 | 997.5 |
| 20260506022448 | 13 | 145 | 9.7 | 80.5 | 12.40 | 2.24 | 0.00 | 59 | 997.4 |
| 20260506022048 | 13 | 173 | 11.3 | 80.5 | 12.50 | 2.21 | 0.00 | 59 | 997.4 |
| 20260506021648 | 13 | 162 | 11.3 | 80.5 | 12.40 | 2.24 | 0.00 | 59 | 997.5 |
| 20260506021248 | 12 | 194 | 16.1 | 80.5 | 12.50 | 2.18 | 0.00 | 59 | 997.5 |
| 20260506020848 | 12 | 179 | 8.0 | 80.5 | 12.50 | 2.16 | 0.00 | 59 | 997.5 |
| 20260506020448 | 12 | 173 | 9.7 | 80.5 | 12.50 | 2.18 | 0.00 | 59 | 997.5 |
| 20260506020048 | 12 | 190 | 8.0 | 80.5 | 12.50 | 2.18 | 0.00 | 58 | 997.5 |
| 20260506015648 | 12 | 194 | 11.3 | 80.5 | 12.50 | 2.24 | 0.00 | 58 | 997.5 |
| 20260506015248 | 12 | 196 | 12.9 | 80.5 | 12.50 | 2.21 | 0.00 | 58 | 997.5 |
| 20260506014848 | 12 | 190 | 11.3 | 80.5 | 12.50 | 2.24 | 0.00 | 58 | 997.6 |
| 20260506014448 | 12 | 194 | 11.3 | 80.5 | 12.50 | 2.21 | 0.00 | 58 | 997.6 |
| 20260506014048 | 12 | 184 | 9.7 | 80.5 | 12.50 | 2.24 | 0.00 | 58 | 997.5 |
| 20260506013648 | 12 | 184 | 11.3 | 80.5 | 12.50 | 2.29 | 0.00 | 58 | 997.6 |
| 20260506013248 | 13 | 177 | 16.1 | 80.5 | 12.50 | 2.31 | 0.00 | 58 | 997.6 |
| 20260506012848 | 13 | 190 | 14.5 | 80.5 | 12.50 | 2.31 | 0.00 | 58 | 997.6 |
| 20260506012448 | 13 | 173 | 11.3 | 80.5 | 12.50 | 2.31 | 0.00 | 58 | 997.5 |
| 20260506012048 | 13 | 166 | 11.3 | 80.5 | 12.50 | 2.34 | 0.00 | 59 | 997.5 |
| 20260506011648 | 13 | 190 | 11.3 | 80.5 | 12.50 | 2.31 | 0.00 | 59 | 997.5 |
| 20260506011248 | 13 | 234 | 12.9 | 80.5 | 12.50 | 2.34 | 0.00 | 59 | 997.6 |
| 20260506010849 | 13 | 168 | 17.7 | 80.5 | 12.50 | 2.29 | 0.00 | 59 | 997.5 |
| 20260506010448 | 13 | 145 | 6.4 | 80.5 | 12.50 | 2.29 | 0.00 | 59 | 997.5 |
| 20260506010048 | 13 | 166 | 14.5 | 80.5 | 12.50 | 2.29 | 0.00 | 59 | 997.5 |
| 20260506005648 | 13 | 172 | 11.3 | 80.5 | 12.50 | 2.26 | 0.00 | 59 | 997.6 |
| 20260506005248 | 13 | 156 | 14.5 | 80.5 | 12.50 | 2.26 | 0.00 | 59 | 997.6 |
| 20260506004848 | 13 | 184 | 11.3 | 80.5 | 12.50 | 2.26 | 0.00 | 59 | 997.5 |
| 20260506004448 | 12 | 173 | 14.5 | 80.5 | 12.50 | 2.24 | 0.00 | 59 | 997.5 |
| 20260506004048 | 12 | 179 | 11.3 | 80.5 | 12.50 | 2.21 | 0.00 | 59 | 997.5 |
| 20260506003648 | 12 | 183 | 9.7 | 80.5 | 12.50 | 2.24 | 0.00 | 58 | 997.5 |
| 20260506003248 | 12 | 179 | 9.7 | 80.5 | 12.50 | 2.24 | 0.00 | 58 | 997.5 |
| 20260506002848 | 13 | 184 | 16.1 | 80.5 | 12.50 | 2.21 | 0.00 | 58 | 997.5 |
| 20260506002448 | 12 | 183 | 9.7 | 80.5 | 12.50 | 2.21 | 0.00 | 58 | 997.5 |
| 20260506002048 | 12 | 179 | 12.9 | 80.5 | 12.50 | 2.21 | 0.00 | 58 | 997.5 |
| 20260506001648 | 12 | 189 | 11.3 | 80.5 | 12.50 | 2.21 | 0.00 | 58 | 997.4 |
| 20260506001248 | 12 | 190 | 12.9 | 80.5 | 12.50 | 2.21 | 0.00 | 58 | 997.4 |
| 20260506000848 | 12 | 179 | 9.7 | 80.5 | 12.50 | 2.21 | 0.00 | 58 | 997.4 |
| 20260506000448 | 12 | 149 | 11.3 | 80.5 | 12.50 | 2.21 | 0.00 | 58 | 997.4 |
| 20260506000048 | 12 | 156 | 9.7 | 80.5 | 12.50 | 2.21 | 0.00 | 57 | 997.4 |
| 20260505235648 | 12 | 173 | 12.9 | 80.5 | 12.50 | 2.24 | 0.00 | 57 | 997.4 |
| 20260505235248 | 12 | 155 | 14.5 | 80.5 | 12.50 | 2.24 | 0.00 | 57 | 997.4 |
| 20260505234848 | 12 | 162 | 9.7 | 80.5 | 12.50 | 2.21 | 0.00 | 57 | 997.4 |
| 20260505234448 | 12 | 177 | 11.3 | 80.5 | 12.50 | 2.21 | 0.00 | 57 | 997.4 |
| 20260505234048 | 12 | 183 | 9.7 | 80.5 | 12.50 | 2.24 | 0.00 | 57 | 997.5 |
| 20260505233648 | 13 | 179 | 12.9 | 80.5 | 12.50 | 2.26 | 0.00 | 57 | 997.4 |
| 20260505233248 | 13 | 172 | 11.3 | 80.5 | 12.50 | 2.29 | 0.00 | 57 | 997.4 |
| 20260505232848 | 13 | 172 | 12.9 | 80.5 | 12.50 | 2.29 | 0.00 | 57 | 997.5 |
| 20260505232448 | 13 | 172 | 11.3 | 80.5 | 12.50 | 2.29 | 0.00 | 57 | 997.5 |
| 20260505232048 | 13 | 183 | 16.1 | 80.5 | 12.50 | 2.31 | 0.00 | 57 | 997.5 |
| 20260505231648 | 13 | 179 | 11.3 | 80.5 | 12.50 | 2.31 | 0.00 | 56 | 997.5 |
| 20260505231248 | 13 | 173 | 11.3 | 80.5 | 12.50 | 2.31 | 0.00 | 56 | 997.4 |
| 20260505230848 | 13 | 172 | 11.3 | 80.5 | 12.50 | 2.29 | 0.00 | 56 | 997.5 |
| 20260505230448 | 13 | 156 | 14.5 | 80.5 | 12.50 | 2.29 | 0.00 | 56 | 997.5 |
| 20260505230048 | 13 | 179 | 14.5 | 80.5 | 12.50 | 2.29 | 0.00 | 56 | 997.5 |
| 20260505225648 | 13 | 184 | 11.3 | 80.5 | 12.50 | 2.31 | 0.00 | 56 | 997.5 |
| 20260505225248 | 13 | 179 | 11.3 | 80.5 | 12.50 | 2.31 | 0.00 | 56 | 997.5 |
| 20260505224848 | 13 | 184 | 12.9 | 80.5 | 12.50 | 2.31 | 0.00 | 56 | 997.5 |
| 20260505224448 | 13 | 183 | 9.7 | 80.5 | 12.50 | 2.34 | 0.00 | 56 | 997.5 |
| 20260505224048 | 15 | 179 | 11.3 | 80.5 | 12.50 | 2.36 | 0.00 | 56 | 997.5 |
| 20260505223648 | 13 | 183 | 11.3 | 80.5 | 12.50 | 2.36 | 0.00 | 56 | 997.6 |
| 20260505223248 | 13 | 200 | 9.7 | 80.5 | 12.50 | 2.36 | 0.00 | 56 | 997.6 |
| 20260505222848 | 15 | 183 | 11.3 | 80.5 | 12.50 | 2.39 | 0.00 | 55 | 997.6 |
| 20260505222448 | 15 | 173 | 8.0 | 80.5 | 12.50 | 2.39 | 0.00 | 55 | 997.6 |
| 20260505222048 | 15 | 179 | 8.0 | 80.5 | 12.50 | 2.39 | 0.00 | 55 | 997.6 |
| 20260505221648 | 15 | 177 | 9.7 | 80.5 | 12.50 | 2.39 | 0.00 | 55 | 997.6 |
| 20260505221248 | 15 | 162 | 6.4 | 80.5 | 12.50 | 2.39 | 0.00 | 55 | 997.6 |
| 20260505220848 | 15 | 151 | 9.7 | 80.5 | 12.50 | 2.39 | 0.00 | 55 | 997.6 |
| 20260505220448 | 16 | 173 | 9.7 | 80.5 | 12.50 | 2.39 | 0.00 | 55 | 997.7 |
| 20260505220048 | 16 | 138 | 8.0 | 80.5 | 12.50 | 2.39 | 0.00 | 55 | 997.7 |
| 20260505215648 | 16 | 194 | 11.3 | 80.5 | 12.50 | 2.34 | 0.00 | 55 | 997.7 |
| 20260505215248 | 16 | 138 | 6.4 | 80.5 | 12.60 | 2.36 | 0.00 | 55 | 997.8 |
| 20260505214848 | 16 | 166 | 8.0 | 80.5 | 12.60 | 2.39 | 0.00 | 55 | 997.8 |
| 20260505214448 | 16 | 162 | 6.4 | 80.5 | 12.60 | 2.39 | 0.00 | 55 | 997.8 |
| 20260505214048 | 16 | 145 | 8.0 | 80.5 | 12.60 | 2.39 | 0.00 | 54 | 997.8 |
| 20260505213648 | 16 | 155 | 8.0 | 80.5 | 12.60 | 2.39 | 0.00 | 54 | 997.8 |
| 20260505213248 | 16 | 166 | 8.0 | 80.5 | 12.60 | 2.39 | 0.00 | 54 | 997.8 |
| 20260505212848 | 16 | 168 | 8.0 | 80.5 | 12.60 | 2.39 | 0.00 | 54 | 997.8 |
| 20260505212448 | 16 | 127 | 9.7 | 80.5 | 12.60 | 2.39 | 0.00 | 54 | 997.8 |
| 20260505212048 | 16 | 177 | 11.3 | 80.5 | 12.60 | 2.39 | 0.00 | 54 | 997.8 |
| 20260505211648 | 16 | 189 | 9.7 | 80.5 | 12.60 | 2.36 | 0.00 | 53 | 997.8 |
| 20260505211248 | 16 | 166 | 8.0 | 80.5 | 12.60 | 2.34 | 0.00 | 53 | 997.8 |
| 20260505210848 | 16 | 166 | 6.4 | 80.5 | 12.60 | 2.34 | 0.00 | 53 | 997.8 |
| 20260505210448 | 16 | 172 | 6.4 | 80.5 | 12.60 | 2.34 | 0.00 | 53 | 997.8 |
| 20260505210048 | 16 | 166 | 9.7 | 80.5 | 12.60 | 2.39 | 0.00 | 52 | 997.8 |
| 20260505205648 | 16 | 151 | 4.8 | 80.5 | 12.60 | 2.39 | 0.00 | 52 | 997.8 |
| 20260505205248 | 17 | 194 | 6.4 | 80.5 | 12.60 | 2.39 | 0.00 | 52 | 997.8 |
| 20260505204848 | 16 | 162 | 6.4 | 80.5 | 12.60 | 2.39 | 0.00 | 52 | 997.8 |
| 20260505204448 | 17 | 172 | 4.8 | 80.5 | 12.60 | 2.36 | 0.00 | 51 | 997.9 |
| 20260505204048 | 17 | 123 | 6.4 | 80.5 | 12.60 | 2.36 | 0.00 | 51 | 997.9 |
| 20260505203648 | 17 | 151 | 8.0 | 80.5 | 12.60 | 2.36 | 0.00 | 51 | 997.9 |
| 20260505203248 | 17 | 149 | 8.0 | 80.5 | 12.60 | 2.36 | 0.00 | 50 | 997.9 |
| 20260505202847 | 17 | 149 | 6.4 | 80.5 | 12.60 | 2.36 | 0.00 | 50 | 997.9 |
| 20260505202448 | 17 | 166 | 9.7 | 80.5 | 12.60 | 2.36 | 0.00 | 50 | 997.9 |
| 20260505202048 | 17 | 145 | 6.4 | 80.5 | 12.60 | 2.26 | 0.00 | 49 | 997.9 |
| 20260505201648 | 17 | 121 | 4.8 | 80.5 | 12.60 | 2.29 | 0.00 | 49 | 997.9 |
| 20260505201248 | 17 | 149 | 3.2 | 80.5 | 12.60 | 2.29 | 0.00 | 49 | 997.9 |
| 20260505200848 | 17 | 155 | 4.8 | 80.5 | 12.60 | 2.31 | 0.00 | 50 | 997.9 |
| 20260505200448 | 17 | 161 | 6.4 | 80.5 | 12.60 | 2.29 | 0.00 | 50 | 998.0 |
| 20260505200047 | 17 | 149 | 6.4 | 80.5 | 12.60 | 2.31 | 0.00 | 50 | 997.9 |
| 20260505195648 | 17 | 115 | 6.4 | 80.5 | 12.60 | 2.26 | 0.00 | 49 | 997.9 |
| 20260505195248 | 17 | 127 | 3.2 | 80.5 | 12.60 | 2.29 | 0.00 | 49 | 997.9 |
| 20260505194848 | 17 | 121 | 4.8 | 80.5 | 12.60 | 2.31 | 0.00 | 49 | 997.9 |
| 20260505194448 | 17 | 123 | 4.8 | 80.5 | 12.60 | 2.34 | 0.00 | 49 | 997.9 |
| 20260505194048 | 17 | 138 | 6.4 | 80.5 | 12.60 | 2.36 | 0.00 | 49 | 997.9 |
| 20260505193647 | 17 | 139 | 6.4 | 80.5 | 12.60 | 2.34 | 0.00 | 48 | 997.9 |
| 20260505193248 | 17 | 156 | 3.2 | 80.5 | 12.60 | 2.36 | 0.00 | 48 | 997.9 |
| 20260505192847 | 17 | 138 | 3.2 | 80.5 | 12.60 | 2.39 | 0.00 | 48 | 997.9 |
| 20260505192448 | 17 | 145 | 8.0 | 80.5 | 12.60 | 2.44 | 0.00 | 48 | 997.9 |
| 20260505192048 | 17 | 145 | 6.4 | 80.5 | 12.60 | 2.41 | 0.00 | 47 | 997.9 |
| 20260505191648 | 17 | 162 | 8.0 | 80.5 | 12.60 | 2.41 | 0.00 | 47 | 997.9 |
| 20260505191247 | 17 | 149 | 4.8 | 80.5 | 12.60 | 2.41 | 0.00 | 47 | 997.9 |
| 20260505190848 | 17 | 189 | 8.0 | 80.5 | 12.60 | 2.44 | 0.00 | 47 | 997.9 |
| 20260505190448 | 17 | 162 | 6.4 | 80.5 | 12.60 | 2.46 | 0.00 | 47 | 997.9 |
| 20260505190047 | 17 | 144 | 6.4 | 80.5 | 12.60 | 2.41 | 0.00 | 46 | 997.9 |
| 20260505185647 | 17 | 132 | 6.4 | 80.5 | 12.60 | 2.44 | 0.00 | 46 | 997.8 |
| 20260505185247 | 17 | 144 | 6.4 | 80.5 | 12.60 | 2.44 | 0.00 | 46 | 997.8 |
| 20260505184847 | 17 | 138 | 4.8 | 80.5 | 12.60 | 2.44 | 0.00 | 46 | 997.8 |
| 20260505184447 | 17 | 155 | 4.8 | 80.5 | 12.60 | 2.44 | 0.00 | 46 | 997.8 |
| 20260505184047 | 17 | 139 | 4.8 | 80.5 | 12.60 | 2.44 | 0.00 | 45 | 997.8 |
| 20260505183648 | 17 | 127 | 4.8 | 80.5 | 12.60 | 2.49 | 0.00 | 45 | 997.7 |
| 20260505183248 | 17 | 121 | 3.2 | 80.5 | 12.60 | 2.49 | 0.00 | 45 | 997.7 |
| 20260505182847 | 17 | 134 | 3.2 | 80.5 | 12.60 | 2.57 | 0.00 | 45 | 997.7 |
| 20260505182448 | 17 | 139 | 4.8 | 80.5 | 12.60 | 2.59 | 0.00 | 44 | 997.7 |
| 20260505182048 | 17 | 166 | 6.4 | 80.5 | 12.60 | 2.62 | 0.00 | 44 | 997.7 |
| 20260505181647 | 18 | 155 | 6.4 | 80.5 | 12.60 | 2.67 | 0.00 | 44 | 997.6 |
| 20260505181247 | 18 | 139 | 6.4 | 80.5 | 12.60 | 2.69 | 0.00 | 43 | 997.6 |
| 20260505180848 | 18 | 151 | 3.2 | 80.5 | 12.60 | 2.69 | 0.00 | 43 | 997.6 |
| 20260505180447 | 18 | 117 | 9.7 | 80.5 | 12.70 | 2.72 | 0.00 | 43 | 997.6 |
| 20260505180047 | 18 | 145 | 6.4 | 80.5 | 12.70 | 2.72 | 0.00 | 42 | 997.6 |
| 20260505175647 | 18 | 162 | 6.4 | 80.5 | 12.70 | 2.69 | 0.00 | 42 | 997.5 |
| 20260505175247 | 20 | 132 | 4.8 | 80.5 | 12.80 | 2.72 | 0.00 | 42 | 997.5 |
| 20260505174847 | 20 | 145 | 4.8 | 80.5 | 13.00 | 2.77 | 0.00 | 41 | 997.5 |
| 20260505174447 | 20 | 134 | 3.2 | 80.5 | 13.11 | 2.82 | 0.00 | 41 | 997.5 |
| 20260505174047 | 20 | 151 | 4.8 | 80.5 | 13.21 | 2.84 | 0.00 | 41 | 997.4 |
| 20260505173647 | 21 | 145 | 4.8 | 80.5 | 13.31 | 2.90 | 0.00 | 41 | 997.4 |
| 20260505173247 | 21 | 151 | 4.8 | 80.5 | 13.31 | 2.97 | 0.00 | 40 | 997.4 |
| 20260505172847 | 21 | 138 | 6.4 | 80.5 | 13.41 | 3.02 | 0.00 | 40 | 997.4 |
| 20260505172447 | 21 | 151 | 6.4 | 80.5 | 13.41 | 3.05 | 0.00 | 40 | 997.4 |
| 20260505172048 | 21 | 132 | 4.8 | 80.5 | 13.49 | 3.07 | 0.00 | 40 | 997.4 |
| 20260505171647 | 22 | 151 | 6.4 | 80.5 | 13.59 | 3.12 | 0.00 | 39 | 997.4 |
| 20260505171248 | 22 | 138 | 6.4 | 80.5 | 13.79 | 3.20 | 0.00 | 39 | 997.4 |
| 20260505170847 | 22 | 144 | 4.8 | 80.5 | 13.79 | 3.25 | 0.00 | 39 | 997.4 |
| 20260505170447 | 22 | 166 | 6.4 | 80.5 | 13.79 | 3.40 | 0.00 | 39 | 997.4 |
| 20260505170047 | 25 | 184 | 12.9 | 80.5 | 13.79 | 3.51 | 0.00 | 38 | 997.4 |
| 20260505165647 | 26 | 184 | 11.3 | 80.5 | 13.79 | 3.61 | 0.00 | 38 | 997.4 |
| 20260505165247 | 26 | 177 | 14.5 | 80.5 | 13.79 | 3.45 | 0.00 | 38 | 997.4 |
| 20260505164847 | 26 | 183 | 9.7 | 80.5 | 13.79 | 3.43 | 0.00 | 38 | 997.4 |
| 20260505164447 | 23 | 184 | 9.7 | 80.5 | 13.79 | 3.33 | 0.00 | 38 | 997.4 |
| 20260505164047 | 23 | 184 | 12.9 | 80.5 | 13.79 | 3.35 | 0.00 | 38 | 997.5 |
| 20260505163647 | 25 | 183 | 9.7 | 80.5 | 13.79 | 3.35 | 0.00 | 38 | 997.5 |
| 20260505163247 | 26 | 161 | 11.3 | 80.5 | 13.79 | 3.38 | 0.00 | 38 | 997.5 |
| 20260505162847 | 23 | 189 | 17.7 | 80.5 | 13.79 | 3.30 | 0.00 | 38 | 997.5 |
| 20260505162447 | 23 | 172 | 14.5 | 80.5 | 13.79 | 3.33 | 0.00 | 37 | 997.5 |
| 20260505162047 | 23 | 177 | 9.7 | 80.5 | 13.79 | 3.35 | 0.00 | 37 | 997.5 |
| 20260505161247 | 25 | 183 | 9.7 | 80.5 | 13.79 | 3.43 | 0.00 | 36 | 997.5 |
| 20260505160847 | 26 | 184 | 9.7 | 80.5 | 13.79 | 3.45 | 0.00 | 36 | 997.5 |
| 20260505160447 | 23 | 173 | 9.7 | 80.5 | 13.79 | 3.35 | 0.00 | 35 | 997.5 |
| 20260505153247 | 27 | 184 | 17.7 | 80.5 | 13.79 | 3.71 | 0.00 | 34 | 997.7 |
| 20260505152447 | 27 | 190 | 12.9 | 80.5 | 13.79 | 3.71 | 0.00 | 33 | 997.8 |
| 20260505151647 | 27 | 168 | 8.0 | 80.5 | 13.79 | 3.71 | 0.00 | 33 | 997.8 |
| 20260505151247 | 27 | 179 | 8.0 | 80.5 | 13.79 | 3.63 | 0.00 | 32 | 997.8 |
| 20260505150847 | 26 | 172 | 14.5 | 80.5 | 13.79 | 3.61 | 0.00 | 32 | 997.8 |
| 20260505150447 | 27 | 183 | 16.1 | 80.5 | 13.79 | 3.71 | 0.00 | 32 | 997.9 |
| 20260505140447 | 30 | 173 | 27.4 | 80.5 | 13.79 | 4.06 | 0.00 | 30 | 998.2 |